Weather History for KCRG - February, 2013

Change the Weather History Date:

Sunday, February 3, 2013

  Actual Average Record
Temperature  
Mean Temperature 52 °F -  
Max Temperature 66 °F 63 °F 82 °F (2014)
Min Temperature 39 °F 44 °F 36 °F (2015)
Degree Days  
Heating Degree Days 12    
Growing Degree Days 2 (Base 50)    
Moisture  
Dew Point 32 °F    
Average Humidity 52    
Maximum Humidity 87    
Minimum Humidity 18    
Precipitation  
Precipitation 0.00 in - - ()
Sea Level Pressure  
Sea Level Pressure 30.12 in    
Wind  
Wind Speed 4 mph (WNW)    
Max Wind Speed 14 mph    
Max Gust Speed 20 mph    
Visibility 9 miles    
Events      
Averages and records for this station are not official NWS values.
T = Trace of Precipitation, MM = Missing Value Source: NWS Daily Summary

Daily Weather History Graph

Daily Weather History Graph

Search for Another Location

Airport or City:

Trip Planner

Search our weather history database for the weather conditions in past years. The results will help you decide how hot, cold, wet, or windy it might be!

Date:

Astronomy

Feb. 03, 2013 Rise Set
Actual Time 7:15 AM EST 6:04 PM EST
Civil Twilight 6:50 AM EST 6:29 PM EST
Nautical Twilight 6:21 AM EST 6:58 PM EST
Astronomical Twilight 5:53 AM EST 7:26 PM EST
Moon 12:40 AM EST (2/3) 11:43 AM EST (2/3)
Length of Visible Light 11h 39m
Length of Day
10h 49m
Waning Gibbous, 49% of the Moon is Illuminated
Feb 3
Waning Gibbous
Feb 10
New
Feb 17
First Quarter
Feb 25
Full
Mar 4
Last Quarter

Hourly Weather History & Observations

Time (EST) Temp. Dew Point Humidity Pressure Visibility Wind Dir Wind Speed Gust Speed Precip Events Conditions
12:53 AM 42.1 °F 37.9 °F 85% 30.17 in 9.0 mi Calm Calm - N/A   Clear
1:20 AM 39.2 °F 35.6 °F 87% 30.15 in 1.5 mi Calm Calm - N/A   Clear
1:29 AM 41.0 °F 35.6 °F 81% 30.15 in 3.0 mi Calm Calm - N/A   Haze
1:53 AM 41.0 °F 37.0 °F 86% 30.14 in 7.0 mi Calm Calm - N/A   Clear
2:53 AM 39.9 °F 36.0 °F 86% 30.12 in 9.0 mi Calm Calm - N/A   Clear
3:53 AM 39.0 °F 35.1 °F 86% 30.13 in 10.0 mi Calm Calm - N/A   Clear
4:53 AM 39.0 °F 33.1 °F 79% 30.13 in 10.0 mi Calm Calm - N/A   Clear
5:53 AM 46.9 °F 32.0 °F 56% 30.14 in 10.0 mi WNW 5.8 mph - N/A   Clear
6:53 AM 48.9 °F 37.9 °F 66% 30.15 in 10.0 mi WNW 9.2 mph - N/A   Mostly Cloudy
7:53 AM 48.0 °F 37.9 °F 68% 30.18 in 10.0 mi NW 9.2 mph - N/A   Clear
8:53 AM 51.1 °F 39.9 °F 66% 30.19 in 10.0 mi NW 11.5 mph - N/A   Clear
9:53 AM 55.0 °F 37.0 °F 51% 30.20 in 10.0 mi NNW 10.4 mph - N/A   Clear
10:53 AM 57.9 °F 34.0 °F 41% 30.19 in 10.0 mi NW 9.2 mph - N/A   Clear
11:53 AM 62.1 °F 33.1 °F 34% 30.16 in 10.0 mi NNW 10.4 mph - N/A   Clear
12:53 PM 63.0 °F 28.9 °F 28% 30.12 in 10.0 mi NW 11.5 mph 19.6 mph N/A   Clear
1:53 PM 64.9 °F 26.1 °F 23% 30.09 in 10.0 mi West 13.8 mph - N/A   Clear
2:53 PM 66.9 °F 24.1 °F 20% 30.06 in 10.0 mi West 13.8 mph - N/A   Clear
3:53 PM 66.9 °F 21.9 °F 18% 30.06 in 10.0 mi West 10.4 mph 19.6 mph N/A   Clear
4:53 PM 66.0 °F 21.9 °F 19% 30.05 in 10.0 mi West 11.5 mph - N/A   Clear
5:53 PM 63.0 °F 23.0 °F 22% 30.06 in 10.0 mi West 6.9 mph - N/A   Clear
6:53 PM 61.0 °F 25.0 °F 25% 30.07 in 10.0 mi West 3.5 mph - N/A   Clear
7:53 PM 59.0 °F 25.0 °F 27% 30.08 in 10.0 mi West 5.8 mph - N/A   Clear
8:53 PM 53.1 °F 28.0 °F 38% 30.09 in 10.0 mi WSW 3.5 mph - N/A   Clear
9:53 PM 48.0 °F 32.0 °F 54% 30.11 in 10.0 mi Calm Calm - N/A   Clear
10:53 PM 50.0 °F 32.0 °F 50% 30.12 in 10.0 mi WSW 6.9 mph - N/A   Clear
11:53 PM 53.1 °F 32.0 °F 45% 30.12 in 10.0 mi West 4.6 mph - N/A   Clear